This is the latest recevied weather packets stored in our database for station/object E20YUC-1. If no packets are shown the sender has not sent any weather packets the latest 10 day(s).
| Time | Temp. | Humidity | Pressure | Rain* | Wind** | Luminosity | Snow |
|---|---|---|---|---|---|---|---|
| 1787468542 | 32.78° C | 68% | 995.6 hPa | 0 mm | 0 m/s | - | - |
| 1787468242 | 32.22° C | 69% | 995.7 hPa | 0 mm | 4.92 m/s, 0° | - | - |
| 1787467944 | 32.22° C | 69% | 995.9 hPa | 0 mm | 0 m/s | - | - |
| 1787467643 | 32.22° C | 69% | 995.7 hPa | 0 mm | 0 m/s | - | - |
| 1787467042 | 31.67° C | 70% | 996 hPa | 0 mm | 0.89 m/s, 0° | - | - |
| 1787466441 | 31.67° C | 71% | 996.3 hPa | 0 mm | 4.02 m/s, 0° | - | - |
| 1787466143 | 31.11° C | 71% | 996.3 hPa | 0 mm | 3.13 m/s, 0° | - | - |
| 1787465841 | 31.11° C | 71% | 996.4 hPa | 0 mm | 1.34 m/s, 0° | - | - |
| 1787465241 | 31.11° C | 72% | 996.4 hPa | 0 mm | 0.45 m/s, 0° | - | - |
| 1787464941 | 31.11° C | 72% | 996.5 hPa | 0 mm | 4.02 m/s, 0° | - | - |
| 1787464643 | 30.56° C | 73% | 996.6 hPa | 0 mm | 0.89 m/s, 0° | - | - |
| 1787464343 | 30.56° C | 73% | 996.8 hPa | 0 mm | 0 m/s | - | - |
| 1787464041 | 30.56° C | 39% | 996.9 hPa | 0 mm | 0.45 m/s, 0° | - | - |
| 1787463441 | 30.56° C | 73% | 997.2 hPa | 0 mm | 0.89 m/s, 0° | - | - |
| 1787463143 | 30.56° C | 73% | 997.3 hPa | 0 mm | 3.58 m/s, 0° | - | - |
| 1787462541 | 30.56° C | 74% | 997.3 hPa | 0 mm | 0 m/s | - | - |
| 1787462241 | 30° C | 75% | 997.4 hPa | 0 mm | 1.79 m/s, 0° | - | - |
| 1787461941 | 30° C | 75% | 997.6 hPa | 0 mm | 0 m/s | - | - |
| 1787461642 | 30° C | 76% | 997.7 hPa | 0 mm | 0 m/s | - | - |
| 1787461041 | 30° C | 76% | 997.8 hPa | 0 mm | 2.68 m/s, 0° | - | - |
| 1787460440 | 30° C | 76% | 997.7 hPa | 0 mm | 0 m/s | - | - |
| 1787460142 | 30° C | 76% | 997.9 hPa | 0 mm | 0.89 m/s, 0° | - | - |
| 1787459840 | 30° C | 76% | 997.9 hPa | 0 mm | 0 m/s | - | - |
| 1787459540 | 30° C | 76% | 998.1 hPa | 0 mm | 0.89 m/s, 22° | - | - |
| 1787458940 | 29.44° C | 76% | 998.1 hPa | 0 mm | 0 m/s | - | - |
* Rain latest hour (hover to see other rain measurements)
** Current wind speed in m/s (hover to see current wind gust speed)